| time (UTC) | temp F | wind direction | speed MPH | gust MPH | rain 1hr in | rain 24hr in | rain mn in | humidity % | barometer mb |
| 20260507051004 | 54 | 173 | 2.0 | 6.0 | 0.00 | 0.00 | 0.00 | 89 | 1020.6 |
| 20260507050005 | 54 | 181 | 1.0 | 5.0 | 0.00 | 0.00 | 0.00 | 89 | 1020.8 |
| 20260507044004 | 54 | 174 | 2.0 | 6.0 | 0.00 | 0.00 | 0.00 | 87 | 1020.7 |
| 20260507043005 | 55 | 169 | 1.0 | 10.0 | 0.00 | 0.00 | 0.00 | 86 | 1020.7 |
| 20260507042004 | 55 | 197 | 0.0 | 2.0 | 0.00 | 0.00 | 0.00 | 86 | 1020.7 |
| 20260507041004 | 55 | 194 | 0.0 | 3.0 | 0.00 | 0.00 | 0.00 | 86 | 1020.7 |
| 20260507040004 | 55 | 169 | 1.0 | 5.0 | 0.00 | 0.00 | 0.00 | 86 | 1020.6 |
| 20260507035004 | 55 | 169 | 1.0 | 4.0 | 0.00 | 0.00 | 0.00 | 85 | 1020.5 |
| 20260507034004 | 55 | 197 | 1.0 | 3.0 | 0.00 | 0.00 | 0.00 | 85 | 1020.4 |
| 20260507033004 | 55 | 176 | 1.0 | 5.0 | 0.00 | 0.00 | 0.00 | 85 | 1020.4 |
| 20260507032004 | 55 | 235 | 1.0 | 7.0 | 0.00 | 0.00 | 0.00 | 85 | 1020.2 |
| 20260507031004 | 56 | 182 | 1.0 | 8.0 | 0.00 | 0.00 | 0.00 | 84 | 1020.3 |
| 20260507030004 | 56 | 178 | 1.0 | 5.0 | 0.00 | 0.00 | 0.00 | 84 | 1020.2 |
| 20260507024004 | 56 | 173 | 3.0 | 9.0 | 0.00 | 0.00 | 0.00 | 83 | 1020.1 |
| 20260507023004 | 56 | 178 | 3.0 | 10.0 | 0.00 | 0.00 | 0.00 | 83 | 1020.0 |
| 20260507021004 | 57 | 171 | 2.0 | 8.0 | 0.00 | 0.00 | 0.00 | 83 | 1020.0 |
| 20260507020005 | 57 | 169 | 2.0 | 8.0 | 0.00 | 0.00 | 0.00 | 82 | 1020.1 |
| 20260507015004 | 57 | 178 | 2.0 | 8.0 | 0.00 | 0.00 | 0.00 | 81 | 1020.1 |
| 20260507014004 | 57 | 191 | 1.0 | 7.0 | 0.00 | 0.00 | 0.00 | 81 | 1020.0 |
| 20260507013004 | 58 | 186 | 1.0 | 6.0 | 0.00 | 0.00 | 0.00 | 82 | 1020.0 |
| 20260507012004 | 58 | 177 | 1.0 | 6.0 | 0.00 | 0.00 | 0.00 | 81 | 1020.1 |
| 20260507010004 | 58 | 191 | 2.0 | 10.0 | 0.00 | 0.00 | 0.00 | 81 | 1020.0 |
| 20260507005004 | 58 | 172 | 2.0 | 7.0 | 0.00 | 0.00 | 0.00 | 82 | 1020.2 |
| 20260507004004 | 57 | 183 | 2.0 | 6.0 | 0.00 | 0.00 | 0.00 | 82 | 1020.2 |
| 20260507003005 | 57 | 179 | 2.0 | 8.0 | 0.00 | 0.00 | 0.00 | 82 | 1020.1 |
| 20260507002003 | 57 | 177 | 3.0 | 7.0 | 0.00 | 0.00 | 0.00 | 82 | 1020.2 |
| 20260507001004 | 57 | 169 | 4.0 | 11.0 | 0.00 | 0.00 | 0.00 | 82 | 1020.2 |
| 20260507000005 | 57 | 165 | 4.0 | 10.0 | 0.00 | 0.00 | 0.00 | 82 | 1020.2 |
| 20260506235004 | 57 | 177 | 4.0 | 10.0 | 0.00 | 0.00 | 0.00 | 82 | 1020.2 |
| 20260506234004 | 58 | 182 | 3.0 | 12.0 | 0.00 | 0.00 | 0.00 | 82 | 1020.3 |
| 20260506233004 | 57 | 166 | 4.0 | 9.0 | 0.00 | 0.00 | 0.00 | 82 | 1020.2 |
| 20260506232004 | 57 | 171 | 4.0 | 9.0 | 0.00 | 0.00 | 0.00 | 82 | 1020.3 |
| 20260506231004 | 57 | 174 | 2.0 | 9.0 | 0.00 | 0.00 | 0.00 | 81 | 1020.3 |
| 20260506230004 | 58 | 178 | 2.0 | 10.0 | 0.00 | 0.00 | 0.00 | 81 | 1020.3 |
| 20260506225003 | 57 | 162 | 4.0 | 11.0 | 0.00 | 0.00 | 0.00 | 81 | 1020.2 |
| 20260506224004 | 58 | 166 | 3.0 | 11.0 | 0.00 | 0.00 | 0.00 | 79 | 1020.3 |
| 20260506223004 | 58 | 179 | 2.0 | 8.0 | 0.00 | 0.00 | 0.00 | 80 | 1020.3 |
| 20260506222004 | 58 | 199 | 3.0 | 10.0 | 0.00 | 0.00 | 0.00 | 79 | 1020.4 |
| 20260506221004 | 58 | 178 | 4.0 | 12.0 | 0.00 | 0.00 | 0.00 | 81 | 1020.5 |
| 20260506220004 | 58 | 171 | 5.0 | 13.0 | 0.00 | 0.00 | 0.00 | 80 | 1020.6 |
| 20260506215004 | 58 | 164 | 5.0 | 11.0 | 0.00 | 0.00 | 0.00 | 81 | 1020.3 |
| 20260506214004 | 58 | 188 | 4.0 | 11.0 | 0.00 | 0.00 | 0.00 | 80 | 1020.4 |
| 20260506211004 | 58 | 181 | 4.0 | 11.0 | 0.00 | 0.00 | 0.00 | 81 | 1020.6 |
| 20260506210004 | 57 | 176 | 2.0 | 10.0 | 0.00 | 0.00 | 0.00 | 81 | 1020.5 |
| 20260506205004 | 57 | 173 | 3.0 | 8.0 | 0.00 | 0.00 | 0.00 | 81 | 1020.5 |
| 20260506204005 | 58 | 173 | 2.0 | 8.0 | 0.00 | 0.00 | 0.00 | 80 | 1020.5 |
| 20260506202004 | 57 | 175 | 3.0 | 9.0 | 0.00 | 0.00 | 0.00 | 81 | 1020.5 |
| 20260506201004 | 57 | 167 | 3.0 | 10.0 | 0.00 | 0.00 | 0.00 | 81 | 1020.3 |
| 20260506200004 | 57 | 190 | 2.0 | 7.0 | 0.00 | 0.00 | 0.00 | 81 | 1020.4 |
| 20260506195004 | 57 | 187 | 2.0 | 7.0 | 0.00 | 0.00 | 0.00 | 82 | 1020.2 |
| 20260506194004 | 57 | 172 | 3.0 | 10.0 | 0.00 | 0.00 | 0.00 | 81 | 1020.2 |
| 20260506193004 | 57 | 178 | 2.0 | 6.0 | 0.00 | 0.00 | 0.00 | 82 | 1020.2 |
| 20260506192004 | 57 | 174 | 3.0 | 8.0 | 0.00 | 0.00 | 0.00 | 82 | 1020.0 |
| 20260506191003 | 57 | 192 | 2.0 | 8.0 | 0.00 | 0.00 | 0.00 | 81 | 1020.1 |
| 20260506190005 | 57 | 173 | 2.0 | 11.0 | 0.00 | 0.00 | 0.00 | 84 | 1020.1 |
| 20260506185004 | 57 | 176 | 3.0 | 8.0 | 0.00 | 0.00 | 0.00 | 83 | 1020.2 |
| 20260506184004 | 56 | 173 | 3.0 | 8.0 | 0.00 | 0.00 | 0.00 | 84 | 1020.1 |
| 20260506182004 | 56 | 177 | 2.0 | 6.0 | 0.00 | 0.00 | 0.00 | 85 | 1020.3 |
| 20260506181004 | 56 | 165 | 3.0 | 9.0 | 0.00 | 0.00 | 0.00 | 86 | 1019.9 |
| 20260506180005 | 55 | 168 | 3.0 | 8.0 | 0.00 | 0.00 | 0.00 | 87 | 1019.7 |
| 20260506175004 | 55 | 163 | 2.0 | 7.0 | 0.00 | 0.00 | 0.00 | 88 | 1019.9 |
| 20260506174004 | 55 | 166 | 2.0 | 7.0 | 0.00 | 0.00 | 0.00 | 89 | 1019.9 |
| 20260506172003 | 54 | 182 | 3.0 | 9.0 | 0.00 | 0.00 | 0.00 | 90 | 1019.9 |
| 20260506171004 | 54 | 195 | 2.0 | 5.0 | 0.00 | 0.00 | 0.00 | 90 | 1020.0 |
| 20260506170003 | 54 | 184 | 1.0 | 5.0 | 0.00 | 0.00 | 0.00 | 91 | 1019.9 |
| 20260506165005 | 54 | 174 | 2.0 | 6.0 | 0.00 | 0.00 | 0.00 | 91 | 1020.0 |
| 20260506164004 | 54 | 176 | 2.0 | 6.0 | 0.00 | 0.00 | 0.00 | 91 | 1019.9 |
| 20260506062004 | 55 | 178 | 0.0 | 3.0 | 0.00 | 0.00 | 0.00 | 88 | 1015.8 |
| 20260506061004 | 56 | 171 | 0.0 | 2.0 | 0.00 | 0.00 | 0.00 | 87 | 1015.7 |